Location: Rehoboth Beach
(38.7438°N, 75.1341°W)
Time: 11:26:56
(UTC-04:00)

Cosmos 1452 Rocket - Visible Passes

Search period start: 17 April 2014 00:00
Search period end: 27 April 2014 00:00
Orbit: 768 x 777 km, 74.1° (Epoch: 16 April)

Date Brightness Start Highest point End Pass type
(mag) Time Alt. Az. Time Alt. Az. Time Alt. Az.
17 Apr 3.8 20:18:06 10° NNW 20:23:22 72° WSW 20:28:35 10° S visible
18 Apr 6.3 21:26:52 10° WNW 21:29:10 13° W 21:31:27 10° WSW visible
19 Apr 5.9 20:49:45 10° NW 20:53:47 23° W 20:57:47 10° SSW visible
20 Apr 5.1 20:13:28 10° NW 20:18:18 38° WSW 20:23:07 10° SSW visible
22 Apr 6.6 20:46:45 10° WNW 20:48:29 12° W 20:50:14 10° WSW visible
23 Apr 6.2 20:09:18 10° NW 20:13:07 21° W 20:16:55 10° SW visible
